Other Surface Observations
Issued by NWS

Home | Current Version | Previous Version | Text Only | Print | Product List | Glossary On
Versions: 1 2 3 4 5 6 7 8 9 10 11 12 13 14 15 16 17 18 19 20 21 22 23 24 25 26 27 28 29 30 31 32 33 34 35 36 37 38 39 40 41 42 43 44 45 46 47 48 49 50
873
SXUS52 KTAE 241819
OSOTAE
OSOTAE
North Florida/South Alabama/Southwest Georgia Weather Roundup
National Weather Service Tallahassee Florida
200 PM EDT SAT JUN 24 2017

Note: "fair" indicates few or no clouds below 12,000 feet with no
significant weather and/or obstructions to visibility.

!FLZ017-115-028-034-025-241900
...North Florida...

CITY           SKY/WX    TMP DP  RH WIND       PRES   REMARKS
TALLAHASSEE    MOSUNNY   92  70  48 SW9       30.04F HX  97
APALACHICOLA   SUNNY     87  79  76 S10       30.06S HX 101
PERRY          MOSUNNY   90  74  59 SW9       30.07F HX  98
CROSS CITY     MOSUNNY   90  72  55 W7        30.06F HX  96
JACKSONVILLE   MOSUNNY   90  72  55 W10       30.04F HX  97
$$

!FLZ112-006-005-002-011-241900
...Florida Panhandle...

CITY           SKY/WX    TMP DP  RH WIND       PRES   REMARKS
MARIANNA       MOSUNNY   91  73  55 SW9       30.02F HX  99
BONIFAY        NOT AVBL
PANAMA CITY NW PTSUNNY   86  74  67 SW13      30.04S HX  94
TYNDALL AFB    PTSUNNY   85  76  73 SW10      30.07S HX  95
TYND DRONE APT FAIR      84  76  76 SW6       30.07S HX  92
DE FUNIAK SPR  MOCLDY    87  74  65 S8        30.04F HX  95
EGLIN AFB      PTSUNNY   86  76  73 S15       30.05S HX  96
DESTIN         CLOUDY    89  81  77 SW8       30.05S HX 108
HURLBURT       PTSUNNY   86  73  64 S13G20    30.04S HX  93
CRESTVIEW      CLOUDY    83  76  79 NW5       30.05S HX  91
PENSACOLA      PTSUNNY   89  75  63 W7        30.04S HX  99
$$

!ALZ063-066-241900
...South Alabama...

CITY           SKY/WX    TMP DP  RH WIND       PRES   REMARKS
DOTHAN         MOSUNNY   89  75  63 SW9G17    30.06F HX  99
OZARK CAIRNS   TSTM      84  75  74 W14G21    30.03S HX  92
FT RUCKER HELI CLOUDY    79  77  94 W9        30.04R FOG
RUCKER HELI 3  PTSUNNY   79  75  89 NW8       30.04F
RUCKER HELI 2  PTSUNNY   81  77  89 NW12      30.03R
FLORALA APT    CLOUDY    80  75  84 CALM      30.06F
ANDALUSIA      CLOUDY    86  75  69 VRB5      30.04F HX  95
TROY           PTSUNNY   84  77  79 VRB6      30.04F HX  94
EUFALA         TSTM      78  76  93 VRB3      30.03R
MOBILE         PTSUNNY   83  75  77 W6        30.06F HX  90
$$

!GAZ120>161-241900
...Southwest and South Central Georgia...

CITY           SKY/WX    TMP DP  RH WIND       PRES   REMARKS
THOMASVILLE    PTSUNNY   90  75  62 W6        30.06F HX 100
BAINBRIDGE     MOSUNNY   95  79  59 S6        30.04F HX 112
MOODY AFB      CLOUDY    91  71  52 SW12      30.04F HX  97
VALDOSTA       MOSUNNY   89  73  59 W9        30.05F HX  97
MOULTRIE       SUNNY     90  72  55 W9        30.06F HX  96
BLAKELY        MOSUNNY   91  72  52 SW9       30.03F HX  98
ALBANY         PTSUNNY   91  72  53 W9        30.05F HX  98
TIFTON         FAIR      87  69  54 SW8G16    30.05F HX  91
FITZGERALD     CLOUDY    89  75  63 SW7       30.07F HX  98
CORDELE        MOCLDY    93  73  53 SW10G17   30.04F HX 102
AMERICUS       FAIR      84  72  65 SW5       30.04F
HOMERVILLE     FAIR      90  72  55 W12G17    30.05F HX  96
$$

!GMZ750-755-770-775-241900
...Coastal and Buoy Obs...

STATION/POSITION TIME  TEMP    WIND        PRES    VSBY  WAVE
                       AIR SEA DIR/SP/G                  HT/PER
                 (UTC) (F)     (DEG/KT/KT) (MB)    (MI)  (FT/S)
KEATON BEACH     1800   83     230/  9/ 11 1018.1F
CEDAR KEY        1800   85     240/  4/  6 1018.9F
C TOWER          1800   81     230/  7/  8 1018.9F
APALACHICOLA BUO 1750   82 85  160/  4/  4 1018.5S         2/ 6
PANAMA CITY BUOY 1750   81 83  180/  4/  6 1017.9F         2/ 7
MOBILE BUOY      1800   82 83  220/  6/  8 1018.0
ORANGE BCH AL BU 1750   81 82  250/ 10/ 12 1017.3F         3/ 6
$$




USA.gov is the U.S. government's official web portal to all federal, state and local government web resources and services.